WJA1102 CYVR-KLAX

Flight info

Callsign WJA1102
Flight time 2h 16m
Altitude 37000
Route SEA J5 SUMMA DCT 4230N12050W DCT FRA J7 REBRG IRNMN2
Aircraft B738/M-SDE2E3FGHIRWXY/LB1

Departure

Time 2026-05-06 22:01
Airport Vancouver International Airport (CYVR)

Arrival

Time 2026-05-07 00:17
Airport Los Angeles International Airport (KLAX)
Time Latitude Longitude Altitude Speed Heading
2026-05-06 21:12 49.19708 -123.17322 24 ft 0 kts 339°
2026-05-06 21:43 49.19706 -123.17320 24 ft 3 kts 339°
2026-05-06 21:43 49.19681 -123.17306 29 ft 4 kts 339°
2026-05-06 21:43 49.19662 -123.17294 26 ft 4 kts
2026-05-06 21:44 49.19650 -123.17304 28 ft 4 kts 97°
2026-05-06 21:44 49.19656 -123.17341 28 ft 2 kts 104°
2026-05-06 21:44 49.19656 -123.17343 28 ft 1 kts 104°
2026-05-06 21:49 49.19651 -123.17312 27 ft 6 kts 101°
2026-05-06 21:49 49.19652 -123.17252 24 ft 6 kts 74°
2026-05-06 21:49 49.19677 -123.17207 26 ft 7 kts 29°
2026-05-06 21:50 49.19755 -123.17192 25 ft 12 kts
2026-05-06 21:50 49.19838 -123.17192 26 ft 12 kts 354°
2026-05-06 21:50 49.19901 -123.17261 24 ft 11 kts 299°
2026-05-06 21:50 49.19928 -123.17373 26 ft 11 kts 315°
2026-05-06 21:51 49.19993 -123.17431 25 ft 11 kts 306°
2026-05-06 21:51 49.20012 -123.17538 24 ft 11 kts 279°
2026-05-06 21:52 49.20053 -123.17934 24 ft 9 kts 279°
2026-05-06 21:52 49.20064 -123.18030 25 ft 9 kts 281°
2026-05-06 21:52 49.20076 -123.18123 27 ft 9 kts 281°
2026-05-06 21:53 49.20087 -123.18214 24 ft 9 kts 281°
2026-05-06 21:53 49.20098 -123.18303 24 ft 9 kts 281°
2026-05-06 21:53 49.20111 -123.18414 24 ft 12 kts 281°
2026-05-06 21:53 49.20126 -123.18534 24 ft 11 kts 281°
2026-05-06 21:54 49.20140 -123.18651 24 ft 11 kts 281°
2026-05-06 21:54 49.20154 -123.18764 24 ft 11 kts 281°
2026-05-06 21:54 49.20166 -123.18874 24 ft 10 kts 278°
2026-05-06 21:54 49.20175 -123.18981 27 ft 10 kts 266°
2026-05-06 21:55 49.20121 -123.19036 26 ft 10 kts 189°
2026-05-06 21:55 49.20040 -123.19056 26 ft 15 kts 189°
2026-05-06 21:55 49.19942 -123.19083 25 ft 14 kts 190°
2026-05-06 21:55 49.19846 -123.19108 26 ft 14 kts 189°
2026-05-06 21:56 49.19754 -123.19131 26 ft 13 kts 189°
2026-05-06 21:56 49.19666 -123.19152 26 ft 13 kts 189°
2026-05-06 21:56 49.19580 -123.19176 25 ft 12 kts 190°
2026-05-06 21:56 49.19496 -123.19199 25 ft 12 kts 189°
2026-05-06 21:57 49.19414 -123.19220 25 ft 12 kts 190°
2026-05-06 21:57 49.19339 -123.19258 24 ft 11 kts 222°
2026-05-06 21:57 49.19314 -123.19376 24 ft 16 kts 258°
2026-05-06 21:57 49.19287 -123.19587 25 ft 21 kts 259°
2026-05-06 21:58 49.19260 -123.19803 24 ft 20 kts 259°
2026-05-06 21:58 49.19234 -123.20011 27 ft 20 kts 259°
2026-05-06 21:58 49.19208 -123.20214 26 ft 19 kts 259°
2026-05-06 21:58 49.19191 -123.20370 24 ft 11 kts 261°
2026-05-06 21:59 49.19132 -123.20427 26 ft 10 kts 192°
2026-05-06 21:59 49.19061 -123.20446 26 ft 10 kts 188°
2026-05-06 21:59 49.18993 -123.20446 26 ft 10 kts 151°
2026-05-06 21:59 49.18962 -123.20356 24 ft 10 kts 101°
2026-05-06 22:00 49.18951 -123.20253 24 ft 11 kts 99°
2026-05-06 22:00 49.18926 -123.20025 24 ft 40 kts 99°
2026-05-06 22:00 49.18843 -123.19301 25 ft 99 kts 99°
2026-05-06 22:00 49.18697 -123.18007 24 ft 145 kts 100°
2026-05-06 22:01 49.18505 -123.16323 207 ft 170 kts 99°
2026-05-06 22:01 49.18313 -123.14531 751 ft 176 kts 99°
2026-05-06 22:01 49.18081 -123.12611 1174 ft 188 kts 105°
2026-05-06 22:01 49.17574 -123.10702 1484 ft 201 kts 134°
2026-05-06 22:02 49.16350 -123.09645 1761 ft 212 kts 162°
2026-05-06 22:02 49.14906 -123.08878 2009 ft 229 kts 162°
2026-05-06 22:02 49.13329 -123.08097 2334 ft 245 kts 163°
2026-05-06 22:02 49.11710 -123.07340 3010 ft 246 kts 164°
2026-05-06 22:03 49.10050 -123.06574 3653 ft 251 kts 164°
2026-05-06 22:03 49.08349 -123.05788 4217 ft 258 kts 164°
2026-05-06 22:03 49.06611 -123.05006 4941 ft 258 kts 167°
2026-05-06 22:03 49.04865 -123.04322 5572 ft 263 kts 168°
2026-05-06 22:04 49.03078 -123.03605 6063 ft 273 kts 167°
2026-05-06 22:04 49.01208 -123.02803 6560 ft 282 kts 167°
2026-05-06 22:04 48.99313 -123.01998 7251 ft 282 kts 168°
2026-05-06 22:04 48.97405 -123.01243 7940 ft 285 kts 169°
2026-05-06 22:05 48.95465 -123.00515 8609 ft 288 kts 170°
2026-05-06 22:05 48.93504 -122.99807 9311 ft 291 kts 171°
2026-05-06 22:05 48.91550 -122.99061 10002 ft 295 kts 168°
2026-05-06 22:05 48.89540 -122.98142 10395 ft 311 kts 167°
2026-05-06 22:06 48.87396 -122.97117 10576 ft 332 kts 166°
2026-05-06 22:06 48.85152 -122.96032 11008 ft 343 kts 166°
2026-05-06 22:06 48.82856 -122.94921 11630 ft 347 kts 166°
2026-05-06 22:06 48.80570 -122.93821 12283 ft 351 kts 167°
2026-05-06 22:07 48.78230 -122.92704 12979 ft 354 kts 167°
2026-05-06 22:07 48.75862 -122.91580 13669 ft 358 kts 167°
2026-05-06 22:07 48.73466 -122.90448 14329 ft 362 kts 167°
2026-05-06 22:07 48.71045 -122.89308 14973 ft 366 kts 168°
2026-05-06 22:08 48.68599 -122.88160 15636 ft 369 kts 168°
2026-05-06 22:08 48.66130 -122.87003 16296 ft 373 kts 168°
2026-05-06 22:08 48.63629 -122.85832 16952 ft 377 kts 168°
2026-05-06 22:08 48.61108 -122.84654 17596 ft 381 kts 168°
2026-05-06 22:09 48.58589 -122.83478 18224 ft 385 kts 168°
2026-05-06 22:09 48.56015 -122.82278 18795 ft 389 kts 168°
2026-05-06 22:09 48.53408 -122.81064 19324 ft 394 kts 168°
2026-05-06 22:09 48.50775 -122.79838 19871 ft 398 kts 168°
2026-05-06 22:10 48.48110 -122.78599 20384 ft 402 kts 168°
2026-05-06 22:10 48.45419 -122.77350 20902 ft 406 kts 168°
2026-05-06 22:10 48.42734 -122.76104 21401 ft 410 kts 168°
2026-05-06 22:10 48.39993 -122.74835 21888 ft 414 kts 168°
2026-05-06 22:11 48.37217 -122.73549 22375 ft 418 kts 168°
2026-05-06 22:11 48.34416 -122.72255 22842 ft 423 kts 168°
2026-05-06 22:11 48.31588 -122.70949 23306 ft 427 kts 168°
2026-05-06 22:11 48.28735 -122.69633 23807 ft 431 kts 168°
2026-05-06 22:12 48.25862 -122.68309 24192 ft 434 kts 168°
2026-05-06 22:12 48.22961 -122.66973 24587 ft 437 kts 168°
2026-05-06 22:12 48.20033 -122.65627 24978 ft 441 kts 168°
2026-05-06 22:12 48.17093 -122.64277 25355 ft 444 kts 168°
2026-05-06 22:13 48.14125 -122.62917 25711 ft 448 kts 168°
2026-05-06 22:13 48.11133 -122.61546 26068 ft 451 kts 168°
2026-05-06 22:13 48.08140 -122.60177 26428 ft 454 kts 168°
2026-05-06 22:13 48.05105 -122.58790 26772 ft 457 kts 168°
2026-05-06 22:14 48.02049 -122.57396 27117 ft 460 kts 168°
2026-05-06 22:14 47.98978 -122.55996 27445 ft 463 kts 168°
2026-05-06 22:14 47.95876 -122.54583 27799 ft 466 kts 168°
2026-05-06 22:14 47.92791 -122.53181 28122 ft 469 kts 168°
2026-05-06 22:15 47.89650 -122.51755 28449 ft 473 kts 168°
2026-05-06 22:15 47.86494 -122.50324 28776 ft 475 kts 168°
2026-05-06 22:15 47.83316 -122.48884 29090 ft 478 kts 168°
2026-05-06 22:15 47.80131 -122.47444 29336 ft 481 kts 168°
2026-05-06 22:16 47.76960 -122.46010 29718 ft 482 kts 168°
2026-05-06 22:16 47.73735 -122.44555 30017 ft 484 kts 167°
2026-05-06 22:16 47.70497 -122.43096 30300 ft 487 kts 167°
2026-05-06 22:16 47.67245 -122.41633 30555 ft 489 kts 167°
2026-05-06 22:17 47.63972 -122.40162 30826 ft 491 kts 167°
2026-05-06 22:17 47.60689 -122.38687 31087 ft 493 kts 167°
2026-05-06 22:17 47.57461 -122.37240 31331 ft 494 kts 167°
2026-05-06 22:17 47.54163 -122.35764 31580 ft 496 kts 167°
2026-05-06 22:18 47.50852 -122.34283 31882 ft 496 kts 167°
2026-05-06 22:18 47.47553 -122.32808 32214 ft 495 kts 167°
2026-05-06 22:18 47.44261 -122.31340 32544 ft 494 kts 167°
2026-05-06 22:18 47.40955 -122.29907 32882 ft 493 kts 168°
2026-05-06 22:19 47.37641 -122.28563 33185 ft 492 kts 169°
2026-05-06 22:19 47.34326 -122.27261 33491 ft 492 kts 169°
2026-05-06 22:19 47.31021 -122.25973 33770 ft 491 kts 169°
2026-05-06 22:19 47.27707 -122.24676 34101 ft 490 kts 168°
2026-05-06 22:20 47.24462 -122.23398 34401 ft 489 kts 168°
2026-05-06 22:20 47.21181 -122.22099 34626 ft 489 kts 168°
2026-05-06 22:20 47.17892 -122.20793 34912 ft 487 kts 168°
2026-05-06 22:20 47.14613 -122.19491 35157 ft 487 kts 168°
2026-05-06 22:21 47.11330 -122.18189 35342 ft 489 kts 168°
2026-05-06 22:21 47.08049 -122.16890 35536 ft 489 kts 168°
2026-05-06 22:21 47.04754 -122.15588 35761 ft 489 kts 168°
2026-05-06 22:21 47.01464 -122.14289 35994 ft 489 kts 168°
2026-05-06 22:22 46.98214 -122.13007 36183 ft 490 kts 168°
2026-05-06 22:22 46.94921 -122.11710 36383 ft 490 kts 168°
2026-05-06 22:22 46.91628 -122.10416 36593 ft 489 kts 168°
2026-05-06 22:22 46.88327 -122.09122 36796 ft 489 kts 168°
2026-05-06 22:23 46.85036 -122.07837 36971 ft 490 kts 168°
2026-05-06 22:23 46.81740 -122.06552 37171 ft 489 kts 168°
2026-05-06 22:23 46.75161 -122.03990 37157 ft 493 kts 168°
2026-05-06 22:24 46.68530 -122.01410 37165 ft 491 kts 168°
2026-05-06 22:24 46.61977 -121.98869 37146 ft 481 kts 168°
2026-05-06 22:25 46.55535 -121.96751 37158 ft 475 kts 172°
2026-05-06 22:25 46.49005 -121.94868 37162 ft 481 kts 172°
2026-05-06 22:26 46.42387 -121.92955 37160 ft 486 kts 172°
2026-05-06 22:26 46.35764 -121.90995 37157 ft 489 kts 171°
2026-05-06 22:27 46.29076 -121.88997 37153 ft 490 kts 171°
2026-05-06 22:27 46.22442 -121.87016 37136 ft 485 kts 172°
2026-05-06 22:28 46.15871 -121.85060 37120 ft 479 kts 171°
2026-05-06 22:28 46.09347 -121.83127 37131 ft 477 kts 171°
2026-05-06 22:29 46.02890 -121.81220 37141 ft 476 kts 171°
2026-05-06 22:29 45.96396 -121.79307 37143 ft 476 kts 171°
2026-05-06 22:30 45.89894 -121.77394 37149 ft 476 kts 172°
2026-05-06 22:30 45.83428 -121.75497 37140 ft 477 kts 172°
2026-05-06 22:31 45.76921 -121.73593 37156 ft 478 kts 172°
2026-05-06 22:31 45.70383 -121.71685 37136 ft 480 kts 172°
2026-05-06 22:32 45.63809 -121.69769 37115 ft 481 kts 171°
2026-05-06 22:32 45.57275 -121.67869 37141 ft 482 kts 171°
2026-05-06 22:33 45.50703 -121.65964 37131 ft 482 kts 172°
2026-05-06 22:33 45.44127 -121.64060 37119 ft 481 kts 172°
2026-05-06 22:34 45.37553 -121.62163 37125 ft 481 kts 171°
2026-05-06 22:34 45.31028 -121.60285 37117 ft 481 kts 171°
2026-05-06 22:35 45.24466 -121.58400 37114 ft 479 kts 171°
2026-05-06 22:35 45.17921 -121.56524 37095 ft 478 kts 171°
2026-05-06 22:36 45.11418 -121.54665 37093 ft 476 kts 171°
2026-05-06 22:36 45.04970 -121.52826 37086 ft 474 kts 171°
2026-05-06 22:37 44.98496 -121.50984 37106 ft 473 kts 171°
2026-05-06 22:37 44.93131 -121.49461 37099 ft 473 kts 171°
2026-05-06 22:38 44.85624 -121.47334 37085 ft 472 kts 171°
2026-05-06 22:38 44.80222 -121.45807 37086 ft 472 kts 171°
2026-05-06 22:39 44.73803 -121.43997 37085 ft 473 kts 171°
2026-05-06 22:39 44.67332 -121.42176 37082 ft 473 kts 171°
2026-05-06 22:40 44.60893 -121.40368 37077 ft 475 kts 171°
2026-05-06 22:40 44.54406 -121.38551 37073 ft 475 kts 171°
2026-05-06 22:41 44.44648 -121.35825 37076 ft 477 kts 171°
2026-05-06 22:42 44.38168 -121.34020 37064 ft 478 kts 171°
2026-05-06 22:42 44.31630 -121.32202 37063 ft 478 kts 171°
2026-05-06 22:43 44.25071 -121.30384 37080 ft 479 kts 171°
2026-05-06 22:43 44.18557 -121.28581 37090 ft 479 kts 171°
2026-05-06 22:44 44.12015 -121.26775 37100 ft 479 kts 171°
2026-05-06 22:44 44.05466 -121.24971 37101 ft 478 kts 171°
2026-05-06 22:45 43.98993 -121.23192 37095 ft 478 kts 171°
2026-05-06 22:45 43.92471 -121.21403 37093 ft 477 kts 171°
2026-05-06 22:46 43.85948 -121.19619 37081 ft 476 kts 171°
2026-05-06 22:46 43.79488 -121.17855 37074 ft 475 kts 171°
2026-05-06 22:47 43.73000 -121.16087 37069 ft 474 kts 171°
2026-05-06 22:47 43.66516 -121.14326 37062 ft 474 kts 171°
2026-05-06 22:48 43.60074 -121.12579 37061 ft 473 kts 171°
2026-05-06 22:48 43.53598 -121.10827 37062 ft 473 kts 171°
2026-05-06 22:49 43.47136 -121.09082 37068 ft 473 kts 171°
2026-05-06 22:49 43.40672 -121.07341 37057 ft 473 kts 171°
2026-05-06 22:50 43.34206 -121.05602 37057 ft 473 kts 171°
2026-05-06 22:50 43.27776 -121.03878 37058 ft 473 kts 171°
2026-05-06 22:51 43.21301 -121.02145 37054 ft 474 kts 171°
2026-05-06 22:51 43.14810 -121.00411 37059 ft 474 kts 171°
2026-05-06 22:52 43.08326 -120.98683 37052 ft 474 kts 171°
2026-05-06 22:52 43.01887 -120.96970 37052 ft 475 kts 171°
2026-05-06 22:53 42.95394 -120.95247 37071 ft 475 kts 171°
2026-05-06 22:53 42.88905 -120.93529 37048 ft 474 kts 171°
2026-05-06 22:54 42.82413 -120.91813 37072 ft 473 kts 171°
2026-05-06 22:54 42.75989 -120.90119 37075 ft 473 kts 171°
2026-05-06 22:55 42.69524 -120.88418 37077 ft 472 kts 171°
2026-05-06 22:55 42.63077 -120.86725 37085 ft 471 kts 171°
2026-05-06 22:56 42.56640 -120.85037 37097 ft 470 kts 172°
2026-05-06 22:56 42.50239 -120.83363 37098 ft 470 kts 172°
2026-05-06 22:57 42.43819 -120.81738 37082 ft 469 kts 172°
2026-05-06 22:57 42.37437 -120.80168 37100 ft 468 kts 172°
2026-05-06 22:58 42.31023 -120.78592 37111 ft 467 kts 172°
2026-05-06 22:58 42.24622 -120.77015 37104 ft 467 kts 172°
2026-05-06 22:59 42.18213 -120.75434 37138 ft 467 kts 173°
2026-05-06 22:59 42.11848 -120.73868 37141 ft 468 kts 173°
2026-05-06 23:00 42.05421 -120.72290 37130 ft 468 kts 173°
2026-05-06 23:00 41.98999 -120.70716 37117 ft 468 kts 173°
2026-05-06 23:01 41.92616 -120.69155 37102 ft 469 kts 173°
2026-05-06 23:01 41.86192 -120.67587 37082 ft 469 kts 173°
2026-05-06 23:02 41.79760 -120.66020 37086 ft 469 kts 173°
2026-05-06 23:02 41.73335 -120.64459 37077 ft 469 kts 173°
2026-05-06 23:03 41.66905 -120.62899 37080 ft 469 kts 173°
2026-05-06 23:03 41.60467 -120.61340 37061 ft 470 kts 173°
2026-05-06 23:04 41.54075 -120.59796 37075 ft 469 kts 173°
2026-05-06 23:04 41.47644 -120.58245 37155 ft 469 kts 173°
2026-05-06 23:05 41.41202 -120.56695 37157 ft 469 kts 173°
2026-05-06 23:05 41.34808 -120.55160 37144 ft 469 kts 173°
2026-05-06 23:06 41.28385 -120.53620 37122 ft 468 kts 173°
2026-05-06 23:06 41.21965 -120.52085 37111 ft 468 kts 173°
2026-05-06 23:07 41.15552 -120.50554 37089 ft 468 kts 173°
2026-05-06 23:07 41.09124 -120.49023 37097 ft 470 kts 172°
2026-05-06 23:08 41.02667 -120.47490 37093 ft 477 kts 172°
2026-05-06 23:08 40.96117 -120.45936 37086 ft 479 kts 172°
2026-05-06 23:09 40.89537 -120.44377 37077 ft 480 kts 172°
2026-05-06 23:09 40.82955 -120.42820 37075 ft 480 kts 172°
2026-05-06 23:10 40.76420 -120.41278 37047 ft 479 kts 172°
2026-05-06 23:10 40.69874 -120.39737 37085 ft 477 kts 172°
2026-05-06 23:11 40.63343 -120.38203 37090 ft 476 kts 172°
2026-05-06 23:11 40.56815 -120.36673 37089 ft 474 kts 172°
2026-05-06 23:12 40.50365 -120.35163 37109 ft 473 kts 172°
2026-05-06 23:12 40.43893 -120.33652 37110 ft 472 kts 172°
2026-05-06 23:13 40.37432 -120.32147 37106 ft 470 kts 172°
2026-05-06 23:13 40.30988 -120.30648 37110 ft 470 kts 172°
2026-05-06 23:14 40.24539 -120.29151 37098 ft 470 kts 172°
2026-05-06 23:14 40.18114 -120.27662 37073 ft 471 kts 172°
2026-05-06 23:15 40.11632 -120.26164 37063 ft 473 kts 172°
2026-05-06 23:15 40.05133 -120.24664 37049 ft 474 kts 172°
2026-05-06 23:16 39.98654 -120.23171 37061 ft 476 kts 172°
2026-05-06 23:16 39.92119 -120.21669 37061 ft 477 kts 172°
2026-05-06 23:17 39.85603 -120.20173 37067 ft 477 kts 171°
2026-05-06 23:17 39.79054 -120.18673 37070 ft 478 kts 171°
2026-05-06 23:18 39.72496 -120.17174 37074 ft 478 kts 171°
2026-05-06 23:18 39.65929 -120.15676 37063 ft 479 kts 171°
2026-05-06 23:19 39.59369 -120.14181 37074 ft 478 kts 171°
2026-05-06 23:19 39.52812 -120.12691 37067 ft 478 kts 171°
2026-05-06 23:20 39.46290 -120.11212 37092 ft 477 kts 171°
2026-05-06 23:20 39.39747 -120.09730 37096 ft 477 kts 171°
2026-05-06 23:20 39.36482 -120.08992 37249 ft 476 kts 171°
2026-05-06 23:21 39.33248 -120.08262 37257 ft 476 kts 171°
2026-05-06 23:21 39.26717 -120.06789 37254 ft 476 kts 171°
2026-05-06 23:22 39.20173 -120.05316 37222 ft 476 kts 171°
2026-05-06 23:22 39.13639 -120.03847 37194 ft 476 kts 171°
2026-05-06 23:23 39.07158 -120.02394 37179 ft 475 kts 171°
2026-05-06 23:23 39.00633 -120.00933 37167 ft 475 kts 171°
2026-05-06 23:24 38.94110 -119.99475 37264 ft 476 kts 171°
2026-05-06 23:24 38.87616 -119.98027 37270 ft 476 kts 170°
2026-05-06 23:25 38.81079 -119.96572 37268 ft 477 kts 170°
2026-05-06 23:25 38.74520 -119.95114 37242 ft 478 kts 170°
2026-05-06 23:26 38.69073 -119.93906 37221 ft 478 kts 171°
2026-05-06 23:26 38.62502 -119.92451 37145 ft 478 kts 170°
2026-05-06 23:27 38.55973 -119.91008 37124 ft 479 kts 170°
2026-05-06 23:27 38.49395 -119.89557 37128 ft 478 kts 170°
2026-05-06 23:28 38.42824 -119.88110 37128 ft 478 kts 170°
2026-05-06 23:28 38.36254 -119.86666 37121 ft 479 kts 170°
2026-05-06 23:29 38.29729 -119.85234 37103 ft 479 kts 170°
2026-05-06 23:29 38.23161 -119.83796 37098 ft 479 kts 170°
2026-05-06 23:30 38.16577 -119.82356 37107 ft 478 kts 170°
2026-05-06 23:30 38.10054 -119.80933 37095 ft 478 kts 169°
2026-05-06 23:31 38.03504 -119.79506 37101 ft 477 kts 170°
2026-05-06 23:31 37.96960 -119.78084 37104 ft 477 kts 169°
2026-05-06 23:32 37.90414 -119.76663 37106 ft 477 kts 169°
2026-05-06 23:32 37.83849 -119.75241 37120 ft 477 kts 169°
2026-05-06 23:33 37.77333 -119.73832 37116 ft 478 kts 169°
2026-05-06 23:33 37.70768 -119.72415 37113 ft 477 kts 169°
2026-05-06 23:34 37.64212 -119.71002 37122 ft 478 kts 169°
2026-05-06 23:34 37.57654 -119.69591 37123 ft 478 kts 169°
2026-05-06 23:35 37.51092 -119.68182 37130 ft 478 kts 169°
2026-05-06 23:35 37.44569 -119.66785 37118 ft 478 kts 169°
2026-05-06 23:36 37.37997 -119.65379 37117 ft 478 kts 169°
2026-05-06 23:36 37.31428 -119.63975 37124 ft 478 kts 169°
2026-05-06 23:37 37.24903 -119.62584 37117 ft 479 kts 169°
2026-05-06 23:37 37.18321 -119.61183 37117 ft 479 kts 169°
2026-05-06 23:38 37.11735 -119.59787 37118 ft 479 kts 169°
2026-05-06 23:38 37.05068 -119.59387 37119 ft 480 kts 180°
2026-05-06 23:39 36.98374 -119.59614 37106 ft 480 kts 180°
2026-05-06 23:39 36.91723 -119.59821 37107 ft 480 kts 180°
2026-05-06 23:40 36.85036 -119.59965 37097 ft 480 kts 180°
2026-05-06 23:40 36.78380 -119.60082 37102 ft 479 kts 179°
2026-05-06 23:41 36.71696 -119.60197 37101 ft 479 kts 179°
2026-05-06 23:41 36.65037 -119.60314 37105 ft 479 kts 180°
2026-05-06 23:42 36.58363 -119.60433 37106 ft 479 kts 180°
2026-05-06 23:42 36.51701 -119.60552 37113 ft 479 kts 179°
2026-05-06 23:43 36.45037 -119.60671 37113 ft 479 kts 179°
2026-05-06 23:43 36.38374 -119.60789 37109 ft 479 kts 179°
2026-05-06 23:44 36.31745 -119.60907 37111 ft 479 kts 179°
2026-05-06 23:44 36.25077 -119.61024 37114 ft 479 kts 179°
2026-05-06 23:45 36.18406 -119.61142 37111 ft 479 kts 179°
2026-05-06 23:45 36.11735 -119.61260 37120 ft 479 kts 179°
2026-05-06 23:46 36.05104 -119.61377 37105 ft 479 kts 179°
2026-05-06 23:46 35.98432 -119.61529 37102 ft 480 kts 183°
2026-05-06 23:46 35.95159 -119.62371 37121 ft 481 kts 197°
2026-05-06 23:47 35.91975 -119.63637 37107 ft 482 kts 197°
2026-05-06 23:47 35.85568 -119.66182 37103 ft 482 kts 197°
2026-05-06 23:48 35.79192 -119.68604 37101 ft 482 kts 196°
2026-05-06 23:48 35.72751 -119.71005 37107 ft 483 kts 196°
2026-05-06 23:49 35.66306 -119.73403 37105 ft 482 kts 194°
2026-05-06 23:49 35.63042 -119.74398 36750 ft 482 kts 190°
2026-05-06 23:49 35.59778 -119.75174 36441 ft 473 kts 188°
2026-05-06 23:49 35.56553 -119.75871 36031 ft 469 kts 188°
2026-05-06 23:50 35.53350 -119.76568 35639 ft 465 kts 189°
2026-05-06 23:50 35.47039 -119.78030 34843 ft 458 kts 189°
2026-05-06 23:50 35.43958 -119.78774 34457 ft 456 kts 190°
2026-05-06 23:51 35.40850 -119.79531 34053 ft 453 kts 190°
2026-05-06 23:51 35.37760 -119.80281 33607 ft 450 kts 190°
2026-05-06 23:51 35.34695 -119.81023 33183 ft 447 kts 190°
2026-05-06 23:51 35.31631 -119.81611 32756 ft 442 kts 178°
2026-05-06 23:52 35.28628 -119.81120 32428 ft 430 kts 160°
2026-05-06 23:52 35.25909 -119.79709 32004 ft 421 kts 144°
2026-05-06 23:52 35.23521 -119.77609 31687 ft 429 kts 139°
2026-05-06 23:52 35.21144 -119.75347 31274 ft 448 kts 138°
2026-05-06 23:53 35.18658 -119.72953 30843 ft 457 kts 138°
2026-05-06 23:53 35.16167 -119.70577 30408 ft 450 kts 139°
2026-05-06 23:53 35.13705 -119.68253 29975 ft 445 kts 139°
2026-05-06 23:53 35.11253 -119.65958 29512 ft 440 kts 139°
2026-05-06 23:54 35.08830 -119.63700 29088 ft 435 kts 139°
2026-05-06 23:54 35.06439 -119.61478 28669 ft 430 kts 139°
2026-05-06 23:54 35.04060 -119.59267 28250 ft 425 kts 139°
2026-05-06 23:54 35.01723 -119.57096 27851 ft 420 kts 139°
2026-05-06 23:55 34.99436 -119.54973 27451 ft 416 kts 139°
2026-05-06 23:55 34.97141 -119.52842 27055 ft 411 kts 139°
2026-05-06 23:55 34.94875 -119.50740 26661 ft 407 kts 139°
2026-05-06 23:55 34.92633 -119.48663 26265 ft 400 kts 139°
2026-05-06 23:56 34.90440 -119.46645 25875 ft 391 kts 139°
2026-05-06 23:56 34.88261 -119.44685 25506 ft 388 kts 140°
2026-05-06 23:56 34.86083 -119.42744 25133 ft 386 kts 140°
2026-05-06 23:56 34.83918 -119.40816 24741 ft 384 kts 140°
2026-05-06 23:57 34.81759 -119.38890 24359 ft 382 kts 140°
2026-05-06 23:57 34.79617 -119.36975 23963 ft 381 kts 140°
2026-05-06 23:57 34.77483 -119.35069 23565 ft 381 kts 140°
2026-05-06 23:57 34.75339 -119.33154 23140 ft 387 kts 140°
2026-05-06 23:58 34.73093 -119.31160 22736 ft 413 kts 140°
2026-05-06 23:58 34.70731 -119.29095 22292 ft 428 kts 141°
2026-05-06 23:58 34.68304 -119.26986 21809 ft 428 kts 141°
2026-05-06 23:58 34.65897 -119.24894 21359 ft 423 kts 141°
2026-05-06 23:59 34.63505 -119.22818 20914 ft 419 kts 141°
2026-05-06 23:59 34.61140 -119.20779 20481 ft 415 kts 141°
2026-05-06 23:59 34.58793 -119.18758 20056 ft 411 kts 141°
2026-05-06 23:59 34.56470 -119.16758 19644 ft 408 kts 141°
2026-05-07 00:00 34.54170 -119.14747 19230 ft 407 kts 140°
2026-05-07 00:00 34.51890 -119.12722 18805 ft 405 kts 140°
2026-05-07 00:00 34.49645 -119.10721 18357 ft 405 kts 140°
2026-05-07 00:00 34.48113 -119.09361 18030 ft 403 kts 140°
2026-05-07 00:01 34.45128 -119.06719 17429 ft 401 kts 140°
2026-05-07 00:01 34.42869 -119.04734 16989 ft 399 kts 141°
2026-05-07 00:01 34.40620 -119.02787 16576 ft 396 kts 141°
2026-05-07 00:01 34.38383 -119.00856 16161 ft 394 kts 141°
2026-05-07 00:02 34.36160 -118.98936 15747 ft 389 kts 141°
2026-05-07 00:02 34.34009 -118.97076 15339 ft 372 kts 140°
2026-05-07 00:02 34.31967 -118.95247 14958 ft 356 kts 139°
2026-05-07 00:02 34.30026 -118.93471 14603 ft 344 kts 139°
2026-05-07 00:03 34.28147 -118.91755 14252 ft 332 kts 139°
2026-05-07 00:03 34.26355 -118.90127 13919 ft 322 kts 139°
2026-05-07 00:03 34.24587 -118.88516 13526 ft 312 kts 138°
2026-05-07 00:03 34.22877 -118.86943 13203 ft 308 kts 138°
2026-05-07 00:04 34.21167 -118.85365 12875 ft 309 kts 138°
2026-05-07 00:04 34.19449 -118.83784 12544 ft 310 kts 139°
2026-05-07 00:04 34.17730 -118.82205 12224 ft 310 kts 139°
2026-05-07 00:04 34.16038 -118.80627 11904 ft 309 kts 136°
2026-05-07 00:05 34.14433 -118.78929 11585 ft 306 kts 133°
2026-05-07 00:05 34.12871 -118.77201 11269 ft 303 kts 133°
2026-05-07 00:05 34.11329 -118.75490 10982 ft 300 kts 133°
2026-05-07 00:05 34.09805 -118.73811 10663 ft 293 kts 133°
2026-05-07 00:06 34.08297 -118.72161 10368 ft 292 kts 133°
2026-05-07 00:06 34.06788 -118.70519 10094 ft 291 kts 134°
2026-05-07 00:06 34.05285 -118.68887 9784 ft 290 kts 134°
2026-05-07 00:06 34.03826 -118.67257 9465 ft 287 kts 127°
2026-05-07 00:07 34.02899 -118.65207 9169 ft 276 kts 102°
2026-05-07 00:07 34.02561 -118.62961 8900 ft 271 kts 93°
2026-05-07 00:07 34.02373 -118.60711 8620 ft 269 kts 92°
2026-05-07 00:07 34.02190 -118.58477 8345 ft 267 kts 93°
2026-05-07 00:08 34.01995 -118.56263 8071 ft 265 kts 93°
2026-05-07 00:08 34.01799 -118.54071 7853 ft 262 kts 93°
2026-05-07 00:08 34.01600 -118.51916 7612 ft 254 kts 94°
2026-05-07 00:08 34.01470 -118.50533 7468 ft 247 kts 94°
2026-05-07 00:09 34.01279 -118.48513 7264 ft 237 kts 93°
2026-05-07 00:09 34.01094 -118.46565 7059 ft 229 kts 93°
2026-05-07 00:09 34.01116 -118.44688 6884 ft 224 kts 75°
2026-05-07 00:09 34.01479 -118.42858 6726 ft 225 kts 75°
2026-05-07 00:10 34.01818 -118.40999 6540 ft 227 kts 76°
2026-05-07 00:10 34.02146 -118.39131 6339 ft 229 kts 76°
2026-05-07 00:10 34.02470 -118.37260 6170 ft 226 kts 76°
2026-05-07 00:10 34.02784 -118.35376 6073 ft 233 kts 78°
2026-05-07 00:11 34.02996 -118.33451 5978 ft 230 kts 79°
2026-05-07 00:11 34.03181 -118.31537 5695 ft 231 kts 81°
2026-05-07 00:11 34.03370 -118.29598 5331 ft 233 kts 81°
2026-05-07 00:11 34.03606 -118.27664 4971 ft 233 kts 79°
2026-05-07 00:12 34.03866 -118.25739 4598 ft 233 kts 79°
2026-05-07 00:12 34.04113 -118.23829 4265 ft 235 kts 80°
2026-05-07 00:12 34.04241 -118.21869 3878 ft 239 kts 97°
2026-05-07 00:12 34.03610 -118.20027 3479 ft 241 kts 129°
2026-05-07 00:13 34.02269 -118.18860 3122 ft 239 kts 161°
2026-05-07 00:13 34.00639 -118.18714 2747 ft 235 kts 194°
2026-05-07 00:13 33.99270 -118.19621 2604 ft 218 kts 228°
2026-05-07 00:13 33.98349 -118.21040 2603 ft 215 kts 236°
2026-05-07 00:14 33.97548 -118.22545 2576 ft 212 kts 249°
2026-05-07 00:14 33.97181 -118.24230 2592 ft 202 kts 258°
2026-05-07 00:14 33.96878 -118.25834 2479 ft 198 kts 257°
2026-05-07 00:14 33.96582 -118.27447 2222 ft 195 kts 259°
2026-05-07 00:15 33.96363 -118.29044 1976 ft 192 kts 261°
2026-05-07 00:15 33.96193 -118.30620 1735 ft 186 kts 262°
2026-05-07 00:15 33.96036 -118.32143 1466 ft 179 kts 262°
2026-05-07 00:15 33.95887 -118.33596 1241 ft 170 kts 261°
2026-05-07 00:16 33.95746 -118.34969 1039 ft 161 kts 262°
2026-05-07 00:16 33.95611 -118.36272 813 ft 151 kts 263°
2026-05-07 00:16 33.95487 -118.37480 655 ft 144 kts 261°
2026-05-07 00:16 33.95360 -118.38668 434 ft 142 kts 261°
2026-05-07 00:17 33.95236 -118.39852 219 ft 142 kts 263°
2026-05-07 00:17 33.95132 -118.40978 98 ft 130 kts 259°
2026-05-07 00:17 33.95034 -118.41875 93 ft 79 kts 263°
2026-05-07 00:17 33.94973 -118.42289 94 ft 34 kts 246°
2026-05-07 00:18 33.94912 -118.42408 94 ft 11 kts 229°
2026-05-07 00:18 33.94858 -118.42465 96 ft 9 kts 213°
2026-05-07 00:18 33.94797 -118.42488 99 ft 9 kts 186°
2026-05-07 00:18 33.94766 -118.42488 99 ft 0 kts 176°
2026-05-07 00:19 33.94754 -118.42487 98 ft 3 kts 176°
2026-05-07 00:19 33.94726 -118.42485 97 ft 6 kts 176°
2026-05-07 00:19 33.94700 -118.42483 95 ft 2 kts 176°
2026-05-07 00:20 33.94692 -118.42482 95 ft 2 kts 176°
2026-05-07 00:20 33.94679 -118.42480 97 ft 3 kts 169°
2026-05-07 00:20 33.94666 -118.42468 94 ft 2 kts 124°
2026-05-07 00:20 33.94662 -118.42438 96 ft 7 kts 91°
2026-05-07 00:21 33.94667 -118.42368 93 ft 9 kts 81°
2026-05-07 00:21 33.94676 -118.42295 95 ft 9 kts 82°
2026-05-07 00:21 33.94685 -118.42225 96 ft 8 kts 81°
2026-05-07 00:21 33.94694 -118.42155 93 ft 8 kts 82°
2026-05-07 00:22 33.94701 -118.42088 93 ft 8 kts 83°
2026-05-07 00:22 33.94707 -118.42023 93 ft 8 kts 84°
2026-05-07 00:22 33.94712 -118.41959 92 ft 7 kts 84°
2026-05-07 00:22 33.94717 -118.41898 92 ft 7 kts 84°
2026-05-07 00:23 33.94722 -118.41836 92 ft 8 kts 84°
2026-05-07 00:23 33.94729 -118.41764 93 ft 9 kts 81°
2026-05-07 00:23 33.94738 -118.41693 92 ft 8 kts 82°
2026-05-07 00:23 33.94747 -118.41624 96 ft 8 kts 82°
2026-05-07 00:24 33.94755 -118.41556 93 ft 8 kts 82°
2026-05-07 00:24 33.94763 -118.41491 95 ft 8 kts 82°
2026-05-07 00:24 33.94771 -118.41428 93 ft 8 kts 78°
2026-05-07 00:24 33.94785 -118.41349 93 ft 10 kts 80°
2026-05-07 00:25 33.94795 -118.41265 93 ft 10 kts 82°
2026-05-07 00:25 33.94804 -118.41179 96 ft 11 kts 83°
2026-05-07 00:25 33.94813 -118.41088 94 ft 11 kts 84°
2026-05-07 00:25 33.94821 -118.41000 94 ft 10 kts 82°
2026-05-07 00:26 33.94831 -118.40914 95 ft 10 kts 83°
2026-05-07 00:26 33.94840 -118.40832 93 ft 10 kts 82°
2026-05-07 00:26 33.94848 -118.40751 96 ft 10 kts 83°
2026-05-07 00:26 33.94856 -118.40672 93 ft 9 kts 84°
2026-05-07 00:27 33.94849 -118.40619 93 ft 6 kts 131°
2026-05-07 00:27 33.94808 -118.40590 94 ft 8 kts 142°
2026-05-07 00:27 33.94791 -118.40557 92 ft 0 kts 105°
2026-05-07 00:28 33.94790 -118.40520 92 ft 7 kts 87°
2026-05-07 00:28 33.94793 -118.40486 92 ft 4 kts 81°
2026-05-07 00:28 33.94798 -118.40455 94 ft 4 kts 80°
2026-05-07 00:28 33.94801 -118.40425 93 ft 4 kts 92°
2026-05-07 00:29 33.94787 -118.40402 92 ft 4 kts 151°
2026-05-07 00:29 33.94767 -118.40401 94 ft 2 kts 187°
2026-05-07 00:30 33.94744 -118.40403 93 ft 1 kts 185°
2026-05-07 00:30 33.94741 -118.40404 93 ft 0 kts 185°
2026-05-07 00:30 33.94740 -118.40404 92 ft 0 kts 185°